SCP
0 0 0 0 0 0 0 0 0 0 0 0 0 0 0 0 0 0 0 0 0 0 0 0 0 0 0 0 0 0 0 0 0 0 0 0 0 0 0 0 0 0 0
0 0 0 0 0 0 0 0 0 0 0 0 0 0 0 0 0 0 0 0 0 0 0 0 0 0 0 0 0 0 0 0 0 0 0 0 0 0 0 0 0 0 0
0 0 0 0 0 0 0 0 0 0 0 0 0 0 0 0 0 0 0 0 0 0 0 0 0 0 0 0 0 0 0 0 0 0 0 0 0 0 0 0 0 0 0
0 0 0 0 0 0 0 0 0 0 0 0 0 0 0 0 0 0 0 0 0 0 0 0 0 0 0 0 0 0 0 0 0 0 0 0 0 0 0 0 0 0 0
0 0 0 0 0 0 0 0 0 0 0 0 0 0 0 0 0 0 0 0 0 0 0 0 0 0 0 0 0 0 0 0 0 0 0 0 0 0 0 0 0 0 0
0 0 0 0 0 0 0 0 0 0 0 0 0 0 0 0 0 0 0 0 0 0 0 0 0 0 0 0 0 0 0 0 0 0 0 0 0 0 0 0 0 0 0
0 0 0 0 0 0 0 0 0 0 0 0 0 0 0 0 0 0 0 0 0 0 0 0 0 0 0 0 0 0 0 0 0 0 0 0 0 0 0 0 0 0 0
0 0 0 0 0 0 0 0 0 0 0 0 0 0 0 0 0 0 0 0 0 0 0 0 0 0 0 0 0 0 0 0 0 0 0 0 0 0 0 0 0 0 0
0 0 0 0 0 0 0 0 0 0 0 0 0 0 0 0 0 0 0 0 0 0 0 0 0 0 0 0 0 0 0 0 0 0 0 0 0 0 0 0 0 0 0
0 0 0 0 0 0 0 0 0 0 0 0 0 0 0 0 0 0 0 0 0 0 0 0 0 0 0 0 0 0 0 0 0 0 0 0 0 0 0 0 0 0 0
0 0 0 0 0 0 0 0 0 0 0 0 0 0 0 0 0 0 0 0 0 0 0 0 0 0 0 0 0 0 0 0 0 0 0 0 0 0 0 0 0 0 0
0 0 0 0 0 0 0 0 0 0 0 0 0 0 0 0 0 0 0 0 0 0 0 0 0 0 0 0 0 0 0 0 0 0 0 0 0 0 0 0 0 0 0
0 0 0 0 0 0 0 0 0 0 0 0 0 0 0 0 0 0 0 0 0 0 0 0 0 0 0 0 0 0 0 0 0 0 0 0 0 0 0 0 0 0 0
0 0 0 0 0 0 0 0 0 0 0 0 0 0 0 0 0 0 0 0 0 0 0 0 0 0 0 0 0 0 0 0 0 0 0 0 0 0 0 0 0 0 0
0 0 0 0 0 0 0 0 0 0 0 0 0 0 0 0 0 0 0 0 0 0 0 0 0 0 0 0 0 0 0 0 0 0 0 0 0 0 0 0 0 0 0
0 0 0 0 0 0 0 0 0 0 0 0 0 0 0 0 0 0 0 0 0 0 0 0 0 0 0 0 0 0 0 0 0 0 0 0 0 0 0 0 0 0 0
0 0 0 0 0 0 0 0 0 0 0 0 0 0 0 0 0 0 0 0 0 0 0 0 0 0 0 0 0 0 0 0 0 0 0 0 0 0 0 0 0 0 0
0 0 0 0 0 0 0 0 0 0 0 0 0 0 0 0 0 0 0 0 0 0 0 0 0 0 0 0 0 0 0 0 0 0 0 0 0 0 0 0 0 0 0
0 0 0 0 0 0 0 0 0 0 0 0 0 0 0 0 0 0 0 0 0 0 0 0 0 0 0 0 0 0 0 0 0 0 0 0 0 0 0 0 0 0 0
0 0 0 0 0 0 0 0 0 0 0 0 0 0 0 0 0 0 0 0 0 0 0 0 0 0 0 0 0 0 0 0 0 0 0 0 0 0 0 0 0 0 0
0 0 0 0 0 0 0 0 0 0 0 0 0 0 0 0 0 0 0 0 0 0 0 0 0 0 0 0 0 0 0 0 0 0 0 0 0 0 0 0 0 0 0
0 0 0 0 0 0 0 0 0 0 0 0 0 0 0 0 0 0 0 0 0 0 0 0 0 0 0 0 0 0 0 0 0 0 0 0 0 0 0 0 0 0 0
0 0 0 0 0 0 0 0 0 0 0 0 0 0 0 0 0 0 0 0 0 0 0 0 0 0 0 0 0 0 0 0 0 0 0 0 0 0 0 0 0 0 0
0 0 0 0 0 0 0 0 0 0 0 0 0 0 0 0 0 0 0 0 0 0 0 0 0 0 0 0 0 0 0 0 0 0 0 0 0 0 0 0 0 0 0
0 0 0 0 0 0 0 0 0 0 0 0 0 0 0 0 0 0 0 0 0 0 0 0 0 0 0 0 0 0 0 0 0 0 0 0 0 0 0 0 0 0 0
0 0 0 0 0 0 0 0 0 0 0 0 0 0 0 0 0 0 0 0 0 0 0 0 0 0 0 0 0 0 0 0 0 0 0 0 0 0 0 0 0 0 0
Wind_Speed
4 6 11 11 13 13 14 14 14 14 15 16 17 17 17 17 17 17 17 17 17 17 17 17 16 16 16 16 16 16 15 15 17 18 19 19 19 19 19 19 16 12 18
8 7 11 11 13 13 14 13 13 13 15 16 16 17 17 17 17 17 16 16 16 16 16 16 15 15 15 15 16 16 16 15 15 16 17 16 18 19 19 19 18 13 19
10 9 10 12 13 13 13 12 12 13 14 15 16 16 16 16 16 16 16 15 15 15 15 15 15 14 14 15 15 16 17 17 16 16 14 8 11 18 18 18 18 18 18
11 9 9 12 13 13 12 11 11 13 14 15 16 16 16 16 16 15 15 15 15 15 15 14 14 14 14 15 16 17 17 17 16 14 9 7 7 16 17 17 18 18 17
8 7 10 13 13 13 12 11 11 12 13 14 15 16 15 15 15 15 14 14 14 15 15 14 14 14 14 15 16 17 18 17 16 12 7 7 6 15 17 16 17 17 16
7 7 9 12 13 13 12 12 12 12 13 14 15 15 15 15 15 14 14 14 14 14 15 15 14 14 14 15 16 17 17 17 13 8 7 7 6 14 16 16 16 16 16
6 6 8 11 12 12 12 12 12 13 13 13 14 15 15 15 14 14 13 14 14 14 14 14 14 14 15 16 17 17 17 16 9 8 7 7 8 15 15 15 15 15 15
6 5 5 9 10 11 11 11 11 12 13 14 14 14 14 14 13 13 13 13 14 14 14 14 14 14 15 16 17 18 17 13 10 8 7 7 11 14 15 15 15 15 15
5 5 3 4 6 9 10 10 10 11 12 13 13 13 13 12 12 12 12 13 13 13 13 14 14 14 15 15 16 16 16 15 8 6 7 5 11 14 14 14 14 14 14
5 4 3 2 3 3 5 9 10 11 11 12 12 12 12 11 10 9 9 11 12 12 12 12 13 13 14 15 15 15 14 11 7 6 4 6 12 14 14 14 13 13 13
4 4 3 2 2 2 3 6 8 10 10 11 10 12 10 6 6 6 7 9 11 11 11 11 11 11 11 12 14 14 10 4 6 5 4 11 14 14 14 14 13 12 12
2 2 2 2 1 1 2 3 3 4 5 6 6 8 6 5 4 5 7 7 8 8 9 10 11 10 8 5 7 9 4 6 5 4 6 15 16 16 15 15 15 14 13
1 1 2 2 1 1 2 2 2 2 3 4 6 7 6 5 4 4 3 3 4 5 4 6 6 4 4 4 4 4 5 5 4 4 7 16 18 18 18 17 17 17 16
2 1 2 2 1 1 2 2 3 3 3 3 4 7 6 4 4 4 3 3 2 2 3 3 3 4 5 5 5 6 6 4 4 4 7 17 19 20 20 20 20 19 19
2 0 2 2 1 2 3 3 4 4 4 4 4 5 6 6 6 5 4 3 3 3 3 4 4 5 5 5 5 6 7 7 7 7 7 18 21 22 23 23 22 22 21
3 1 1 0 2 4 5 5 5 5 5 5 5 6 7 6 6 6 5 4 4 4 4 4 5 5 5 5 6 6 7 7 8 9 7 11 21 23 24 24 24 24 23
3 2 2 3 5 6 8 7 6 5 5 6 6 7 8 8 8 7 6 5 4 4 5 5 5 5 5 5 6 7 7 8 9 10 9 8 9 18 24 24 24 24 24
4 3 3 4 7 8 8 8 7 6 6 6 6 7 9 9 9 7 6 5 4 4 5 5 4 5 5 5 5 5 6 7 9 9 9 9 7 8 14 24 24 24 24
5 5 5 6 8 9 10 9 9 7 7 6 6 6 8 9 9 8 7 5 5 6 5 5 5 4 5 5 5 6 6 6 7 9 10 9 8 8 8 15 21 22 23
6 6 7 8 9 11 9 9 8 8 6 6 6 7 9 8 9 9 7 7 6 6 5 5 7 6 4 4 7 7 6 5 6 7 7 7 8 10 9 9 9 12 21
7 7 9 10 10 10 8 7 7 6 6 6 6 8 8 8 8 9 8 7 6 6 5 5 4 7 7 3 4 4 4 5 5 5 5 6 9 9 9 9 7 7 8
9 9 10 11 11 9 6 6 5 7 6 5 6 7 7 8 8 9 9 7 6 7 7 6 4 4 5 5 3 3 2 3 4 4 4 6 7 6 8 9 8 8 7
11 11 10 11 10 9 10 10 10 7 6 5 6 5 6 7 8 8 9 8 7 7 7 6 5 6 5 5 5 4 4 0 3 3 4 5 6 5 6 6 8 8 9
11 9 9 10 10 11 12 13 15 10 8 5 5 6 7 7 8 8 9 9 8 7 7 6 5 4 5 3 4 5 4 3 2 3 4 4 6 5 6 6 6 6 7
10 10 10 11 11 12 11 12 13 11 9 9 7 9 8 6 7 7 8 8 8 7 7 7 7 7 4 4 3 3 4 4 4 2 3 5 5 4 5 5 3 4 6
9 10 11 12 12 12 11 10 13 18 16 15 12 10 7 5 5 7 8 7 7 7 7 7 7 8 6 6 5 3 3 3 2 2 1 2 4 4 5 3 3 4 4
Wind_Direction
154 154 135 125 118 113 110 109 108 105 102 98 92 87 82 78 73 69 64 60 58 56 56 55 56 57 56 54 54 54 55 59 61 60 58 55 52 49 46 41 37 33 40
155 151 136 127 122 117 115 113 112 109 108 104 97 92 87 82 77 72 67 63 60 58 58 57 57 55 53 49 46 46 50 64 71 63 58 53 52 50 47 43 40 36 36
145 146 137 129 125 122 120 117 116 113 112 108 102 97 92 87 82 77 71 66 63 61 61 60 60 58 53 48 44 45 53 68 75 64 56 42 46 51 49 46 43 39 36
145 146 142 135 130 128 124 121 117 117 116 113 107 102 97 92 86 81 75 70 67 65 64 64 63 61 56 51 47 49 59 73 72 64 53 41 40 51 50 48 45 42 38
139 144 146 143 139 136 131 126 121 120 120 117 112 107 102 97 92 86 80 74 70 68 66 66 66 63 59 55 53 56 65 73 68 58 43 37 36 51 51 50 48 45 41
141 145 152 150 146 143 140 136 131 128 126 123 119 114 110 105 99 92 86 80 74 70 68 67 67 66 62 59 58 61 69 73 63 49 37 29 33 49 51 50 49 46 44
140 143 153 152 150 149 148 146 141 136 134 132 127 122 118 114 107 99 92 86 80 75 72 70 68 67 65 62 61 65 74 74 64 50 35 23 36 49 49 48 47 45 42
128 129 144 151 152 154 155 153 149 144 142 141 137 131 126 122 115 107 98 92 86 81 77 73 70 69 67 65 65 69 71 70 63 52 37 20 34 47 48 46 45 43 41
94 99 102 132 152 158 160 161 156 150 148 148 145 138 133 129 124 114 105 98 93 88 83 76 70 68 67 65 67 70 72 70 60 46 38 20 32 44 45 43 42 41 39
70 74 79 92 121 149 161 165 161 157 154 151 147 142 139 136 131 123 112 105 101 96 91 83 75 68 64 63 64 66 68 65 55 44 26 22 34 41 42 40 39 38 36
62 49 47 58 92 143 163 164 164 162 159 153 148 145 141 136 131 122 118 112 107 101 94 88 82 73 63 58 60 63 61 54 53 39 22 30 35 38 37 35 33 33 31
99 43 32 30 32 130 150 150 156 153 151 149 148 150 144 137 127 118 113 110 103 94 88 87 83 74 65 49 50 55 51 50 45 34 27 35 34 35 35 31 28 25 25
137 32 359 354 317 169 141 143 146 134 134 139 149 151 141 130 120 108 101 88 80 77 70 71 65 57 61 58 52 50 50 49 41 31 26 36 36 35 34 31 26 22 20
131 18 339 335 311 162 137 128 125 117 116 122 136 146 140 131 122 113 98 87 72 68 80 70 62 57 56 55 56 54 49 47 42 36 35 40 40 37 36 33 29 25 20
148 20 325 325 177 144 124 112 104 105 107 109 109 122 132 130 125 112 97 82 70 66 73 73 64 60 52 47 50 55 52 52 52 50 42 46 46 42 38 35 31 28 25
161 175 326 74 148 132 118 110 103 98 95 90 90 100 112 117 118 111 98 85 73 69 70 72 68 65 56 53 51 51 57 60 60 58 52 46 47 44 40 36 32 28 25
176 170 138 120 119 116 111 106 101 94 92 87 84 87 97 106 111 107 100 87 76 74 74 71 64 61 58 56 54 54 64 69 71 65 58 51 41 40 38 35 30 27 24
173 157 133 123 117 113 110 105 100 93 91 89 87 89 91 97 104 102 97 88 80 75 73 71 59 63 54 54 59 61 68 74 73 67 60 52 45 38 30 32 28 24 22
173 158 137 127 122 116 109 103 97 92 87 89 90 93 94 95 98 100 95 88 82 76 66 70 55 62 59 58 71 69 65 68 68 67 60 50 43 37 28 25 24 21 20
172 159 145 136 131 124 115 107 98 87 83 83 87 94 98 99 100 100 94 84 81 82 71 68 72 60 60 66 84 74 60 62 65 61 56 47 38 31 23 21 17 13 16
172 165 159 151 148 141 135 128 117 105 98 90 86 89 95 98 97 98 99 87 82 84 79 78 82 67 48 30 80 69 46 50 66 56 51 46 33 22 15 13 12 11 5
177 173 168 164 161 157 141 126 117 117 103 93 90 82 82 91 96 100 100 96 89 88 73 60 70 83 53 28 81 101 60 11 19 36 40 42 27 14 9 5 7 9 7
183 180 175 170 162 147 136 124 118 110 106 95 92 84 75 85 89 98 98 97 89 89 86 71 69 89 94 45 44 99 112 96 323 342 23 33 18 6 357 351 7 8 14
183 175 169 162 154 148 147 146 146 144 137 132 126 111 94 87 93 96 98 98 94 90 87 78 69 77 98 85 52 44 74 111 82 335 334 359 1 354 347 351 356 7 17
172 169 163 156 154 154 157 156 144 133 127 129 122 114 105 93 91 96 99 100 97 94 93 89 80 74 75 89 86 75 63 56 63 94 317 326 334 325 332 336 350 9 19
165 163 162 159 158 158 157 157 148 142 142 141 140 131 123 114 103 100 101 101 102 102 99 96 91 86 84 84 80 77 90 89 72 81 274 299 310 306 316 323 358 14 15